Regional Weather Roundup
Issued by NWS Mobile, AL

Home | Current Version | Previous Version | Text Only | Print | Product List | Glossary Off
Versions: 1 2 3 4 5 6 7 8 9 10 11 12 13 14 15 16 17 18 19 20 21 22 23 24 25 26 27 28 29 30 31 32 33 34 35 36 37 38 39 40 41 42 43 44 45 46 47 48 49 50

325
ASUS44 KMOB 261613
RWRMOB
REGIONAL WEATHER ROUNDUP
NATIONAL WEATHER SERVICE MOBILE AL
1100 AM CDT FRI MAY 26 2017

NOTE: "FAIR" INDICATES FEW OR NO CLOUDS BELOW 12,000 FEET WITH NO
      SIGNIFICANT WEATHER AND/OR OBSTRUCTIONS TO VISIBILITY.

  * THESE STATIONS ARE PART OF THE UNIVERSITY OF SOUTH ALABAMA
    MESONET AND ARE NOT UNDER NWS OR FAA QUALITY CONTROL.

ALZ061>064-261700-
COASTAL ALABAMA

CITY           SKY/WX    TMP DP  RH WIND       PRES   REMARKS
MOBILE REG APT MOSUNNY   81  61  50 S9        30.07R
BROOKLEY FIELD SUNNY     80  64  58 S12       30.08R
USA CAMPUS*    NOT AVBL
DOG RIVER*       N/A     79  63  57 SE14      30.83


CITY           SKY/WX    TMP DP  RH WIND       PRES   REMARKS
GULF SHORES    SUNNY     79  62  56 S8G16     30.07R

$$

ALZ051>060-261700-
INTERIOR SOUTHWEST AND SOUTH CENTRAL ALABAMA

CITY           SKY/WX    TMP DP  RH WIND       PRES   REMARKS
GREENVILLE     SUNNY     80  58  46 VRB6      30.05S
EVERGREEN      SUNNY     80  60  50 S10       30.06R
ATMORE*          N/A     81  57  44 SW9       30.07S
ANDALUSIA/OPP  SUNNY     83  56  39 VRB5      30.06S
ANDALUSIA*       N/A     79  59  50 S5        30.07R
FLORALA APT    SUNNY     80  58  46 SW9       30.08S
FLORALA*       NOT AVBL

$$

FLZ001>006-261700-
WESTERN FLORIDA PANHANDLE

CITY           SKY/WX    TMP DP  RH WIND       PRES   REMARKS
PENSACOLA      SUNNY     81  59  47 S10       30.06R
NAS PENSACOLA  SUNNY     81  58  45 S13       30.06R
MILTON         SUNNY     80  56  43 S12       30.06R
WHTNG S FIELD  SUNNY     82  59  45 S8        30.06R


CITY           SKY/WX    TMP DP  RH WIND       PRES   REMARKS
JAY*             N/A     81  55  41 S10       30.06R
DUKE FIELD     SUNNY     81  55  41 S8        30.05S
CRESTVIEW      SUNNY     82  58  43 VRB5      30.07S
VALPARAISO     SUNNY     80  59  48 S10       30.07R
DESTIN         SUNNY     82  62  50 VRB6      30.07R

$$

MSZ076-079-261700-
INTERIOR SOUTHEAST MISSISSIPPI

CITY           SKY/WX    TMP DP  RH WIND       PRES   REMARKS
LEAKESVILLE*   NOT AVBL
AGRICOLA*        N/A     81  64  57 CALM      30.04

$$

MARINE OBSERVATIONS

STATION/POSITION TIME  TEMP    WIND        PRES    WAVE
                       AIR SEA DIR/SP/G            HT/PER
                 (UTC) (F)     (DEG/KT/KT) (MB)    (FT/S)
PASCAGOULA       1548   76     170/ 10/ 11 1017.9R
GRAND BAY        1445   77     180/  9     1018.0S
KATRINA CUT      1500   76     180/ 11     1017.3
CEDAR POINT      1530   76     200/ 11     1018.0R
E DAUPHIN ISLAND 1500   76     170/ 11/ 12 1017.4R
MIDDLE BAY LIGHT 1500   76     170/ 12     1018.0
USCG MOBILE BAY  1548   77 77  180/ 10/ 14 1018.7R
STATE DOCKS      1542   80 78              1017.8R
MEAHER PARK      1530   76     190/ 11     1018.0R
FORT MORGAN      1548   77     180/ 11/ 12   N/A
12 S ORANGE BCH  1450   75 77  160/ 12/ 14 1017.0F   2/ 7
PENSACOLA BAY    1542   82 77              1018.3R
64 S DAUPHIN ISL 1550   76 77  170/ 12/ 14 1018.0R   2/ 8
67 S FORT MORGAN 1530   74     180/ 14     1018.0R

$$

SELECTED LOCATIONS ACROSS THE REGION

CITY           SKY/WX    TMP DP  RH WIND       PRES   REMARKS
NEW ORLEANS    MOSUNNY   81  66  60 S13       30.03R
GULFPORT       SUNNY     81  65  58 S8        30.04S
PASCAGOULA AP  SUNNY     81  61  50 VRB7      30.06R
PASCAGOULA*    NOT AVBL
HATTIESBURG    SUNNY     82  61  48 S12       30.03S
LAUREL         NOT AVBL
MERIDIAN       SUNNY     81  61  50 S15       30.02S
JACKSON        SUNNY     80  60  50 S17       30.00R
MONTGOMERY     SUNNY     81  62  52 S8        30.05S
TROY           SUNNY     78  61  55 VRB6      30.06F
ASHFORD*         N/A     79  59  50 S5        30.07R
DOTHAN         SUNNY     79  57  46 S6        30.10S
PANAMA CITY    SUNNY     80  57  45 SE7       30.06S

$$





USA.gov is the U.S. government's official web portal to all federal, state and local government web resources and services.